Date String (YYYY-MM-DD hh:mm:ss) UTC,Instrument flags,Ambient pressure (hPa),Sample flow (lpm),Bypass flow (lpm),Sample temperature (°C),Ambient temperature (°C),ASC tube jacket temperature (°C),LED temperature (°C),Box temperature (°C),Sample RH (%),Span deviation,Mass concentration (μg/m³),Mass concentration (μg/m³),Mass concentration (μg/m³)
DateTimeUTC,F1_M11,P_M11,Q1_M11,Q2_M11,T1_M11,T2_M11,T3_M11,T4_M11,T5_M11,U1_M11,ZSPAN_M11,X0_M11,X2_M11,X1_M11
2021-09-03 19:00:00,,0829.2,5.00,0.00,29.7,28.9,00.0,38.6,31.6,34.2,0000.8,0028.68,0018.95,0017.92
2021-09-03 19:01:00,,0829.3,5.00,0.00,29.6,27.8,00.0,38.6,31.3,34.4,0000.6,0028.65,0018.98,0017.94
2021-09-03 19:02:00,,0829.3,5.00,0.00,29.5,26.2,00.0,38.6,30.8,34.5,0000.7,0027.77,0018.96,0017.93
2021-09-03 19:03:00,,0829.3,5.00,0.00,29.4,25.8,00.0,38.6,30.7,34.5,0000.7,0027.44,0018.95,0017.94
2021-09-03 19:04:00,,0829.3,5.01,0.00,29.3,26.1,00.0,38.5,30.7,34.8,0000.5,0027.94,0018.90,0017.92
2021-09-03 19:05:00,,0829.2,5.00,0.00,29.2,26.6,00.0,38.5,30.8,34.8,0000.8,0029.16,0018.91,0017.90
2021-09-03 19:06:00,,0829.2,4.99,0.00,29.2,27.0,00.0,38.4,30.9,34.7,0001.0,0028.91,0018.94,0017.86
2021-09-03 19:07:00,,0829.3,5.00,0.00,29.3,27.4,00.0,38.4,31.0,34.9,0001.0,0028.88,0019.03,0017.84
2021-09-03 19:08:00,,0829.2,4.99,0.00,29.3,27.7,00.0,38.4,31.1,34.5,0000.9,0028.91,0019.07,0017.85
2021-09-03 19:09:00,,0829.3,5.00,0.00,29.3,28.0,00.0,38.4,31.2,34.3,0000.9,0028.38,0019.11,0017.87
2021-09-03 19:10:00,,0829.4,5.00,0.00,29.4,28.2,00.0,38.4,31.2,34.6,0000.7,0029.23,0019.14,0017.89
2021-09-03 19:11:00,,0829.5,4.98,0.00,29.4,28.4,00.0,38.5,31.3,34.8,0000.7,0029.17,0019.11,0017.93
2021-09-03 19:12:00,,0829.5,5.00,0.00,29.5,28.5,00.0,38.5,31.3,34.3,0000.8,0029.42,0019.15,0017.97
2021-09-03 19:13:00,,0829.5,5.00,0.00,29.5,28.6,00.0,38.5,31.4,34.1,0000.8,0029.56,0019.14,0017.96
2021-09-03 19:14:00,,0829.5,5.01,0.00,29.6,28.7,00.0,38.5,31.5,33.8,0000.8,0029.79,0019.14,0017.94
2021-09-03 19:15:00,,0829.5,4.99,0.00,29.6,28.8,00.0,38.6,31.5,34.1,0000.9,0029.25,0019.15,0017.92
2021-09-03 19:16:00,,0829.5,5.00,0.00,29.6,27.6,00.0,38.6,31.2,34.1,0000.8,0028.11,0019.12,0017.91
2021-09-03 19:17:00,,0829.6,5.00,0.00,29.4,26.0,00.0,38.5,30.8,34.6,0000.8,0027.61,0019.11,0017.90
2021-09-03 19:18:00,,0829.5,4.98,0.00,29.3,25.7,00.0,38.5,30.7,35.1,0001.0,0027.64,0019.02,0017.86
2021-09-03 19:19:00,,0829.6,5.01,0.00,29.4,26.0,00.0,38.5,30.8,34.9,0001.1,0027.76,0018.97,0017.83
2021-09-03 19:20:00,,0829.5,5.00,0.00,29.5,26.5,00.0,38.4,30.9,35.2,0001.1,0027.62,0018.96,0017.82
2021-09-03 19:21:00,,0829.5,5.00,0.00,29.8,26.9,00.0,38.4,31.1,34.8,0001.2,0027.01,0018.95,0017.78
2021-09-03 19:22:00,,0829.5,5.01,0.00,30.0,27.3,00.0,38.4,31.2,34.8,0001.4,0026.57,0018.93,0017.74
2021-09-03 19:23:00,,0829.5,4.99,0.00,30.1,27.6,00.0,38.5,31.3,34.6,0001.4,0026.41,0018.83,0017.69
2021-09-03 19:24:00,,0829.5,5.00,0.00,30.3,27.8,00.0,38.5,31.4,35.0,0001.5,0025.95,0018.78,0017.66
2021-09-03 19:25:00,,0829.5,5.00,0.00,30.4,28.1,00.0,38.6,31.5,34.9,0001.5,0025.21,0018.71,0017.61
2021-09-03 19:26:00,,0829.5,5.00,0.00,30.6,28.2,00.0,38.7,31.6,35.0,0001.4,0024.85,0018.63,0017.56
2021-09-03 19:27:00,,0829.4,4.99,0.00,30.8,28.3,00.0,38.8,31.7,34.8,0001.6,0025.12,0018.63,0017.53
2021-09-03 19:28:00,,0829.3,5.01,0.00,31.0,28.4,00.0,38.8,31.7,33.9,0001.8,0025.59,0018.50,0017.46
2021-09-03 19:29:00,,0829.3,4.99,0.00,31.1,28.5,00.0,38.9,31.7,33.7,0001.9,0024.98,0018.43,0017.43
2021-09-03 19:30:00,,0829.3,5.01,0.00,31.2,28.5,00.0,39.1,31.7,33.5,0001.7,0024.34,0018.37,0017.41
2021-09-03 19:31:00,,0829.3,5.00,0.00,31.1,27.3,00.0,39.1,31.4,33.7,0001.9,0024.36,0018.36,0017.41
2021-09-03 19:32:00,,0829.2,4.99,0.00,31.0,26.3,00.0,39.2,31.1,34.2,0001.9,0024.79,0018.40,0017.45
2021-09-03 19:33:00,,0829.2,4.99,0.00,30.9,26.4,00.0,39.2,31.1,34.9,0001.8,0025.13,0018.42,0017.47
2021-09-03 19:34:00,,0829.2,5.02,0.00,30.8,26.8,00.0,39.2,31.2,35.3,0001.8,0024.99,0018.49,0017.51
2021-09-03 19:35:00,,0829.4,5.00,0.00,31.0,27.2,00.0,39.2,31.5,35.0,0001.8,0025.67,0018.54,0017.51
2021-09-03 19:36:00,,0829.3,5.00,0.00,31.3,27.5,00.0,39.3,31.7,34.5,0001.6,0026.48,0018.50,0017.47
2021-09-03 19:37:00,,0829.3,5.00,0.00,31.4,27.7,00.0,39.3,31.7,33.8,0001.7,0026.29,0018.43,0017.39
2021-09-03 19:38:00,,0829.3,5.01,0.00,31.4,27.9,00.0,39.4,31.7,33.5,0001.6,0025.71,0018.25,0017.27
2021-09-03 19:39:00,,0829.3,4.99,0.00,31.4,28.0,00.0,39.4,31.7,32.9,0001.4,0024.48,0018.07,0017.14
2021-09-03 19:40:00,,0829.4,5.00,0.00,31.4,28.2,00.0,39.5,31.7,32.8,0001.3,0024.84,0017.94,0017.00
2021-09-03 19:41:00,,0829.3,5.02,0.00,31.4,28.3,00.0,39.6,31.7,33.4,0001.4,0024.94,0017.76,0016.83
2021-09-03 19:42:00,,0829.3,5.00,0.00,31.4,28.4,00.0,39.6,31.8,33.6,0001.5,0024.50,0017.55,0016.64
2021-09-03 19:43:00,,0829.3,5.00,0.00,31.3,28.5,00.0,39.7,31.8,33.7,0001.6,0023.34,0017.25,0016.37
2021-09-03 19:44:00,,0829.2,5.00,0.00,31.3,28.6,00.0,39.7,31.8,33.5,0001.6,0022.49,0016.91,0016.06
2021-09-03 19:45:00,,0829.2,5.00,0.00,31.2,28.0,00.0,39.7,31.6,33.1,0001.6,0021.90,0016.56,0015.75
2021-09-03 19:46:00,,0829.2,5.02,0.00,31.1,26.6,00.0,39.7,31.3,33.4,0001.6,0021.16,0016.13,0015.39
2021-09-03 19:47:00,,0829.2,4.99,0.00,31.0,26.3,00.0,39.7,31.2,33.4,0001.8,0020.49,0015.74,0015.04
2021-09-03 19:48:00,,0829.1,5.01,0.00,30.8,26.6,00.0,39.6,31.2,33.3,0002.0,0020.06,0015.40,0014.73
2021-09-03 19:49:00,,0829.1,5.00,0.00,30.8,27.0,00.0,39.6,31.3,33.6,0001.9,0019.70,0015.09,0014.44
2021-09-03 19:50:00,,0828.9,5.01,0.00,30.7,27.3,00.0,39.6,31.3,33.7,0002.0,0019.46,0014.85,0014.20
2021-09-03 19:51:00,,0828.8,4.99,0.00,30.7,27.6,00.0,39.5,31.4,33.4,0002.0,0018.81,0014.59,0013.96
2021-09-03 19:52:00,,0829.0,5.00,0.00,30.6,27.8,00.0,39.5,31.4,33.3,0002.0,0018.02,0014.31,0013.72
2021-09-03 19:53:00,,0828.7,4.99,0.00,30.6,28.0,00.0,39.5,31.5,33.8,0001.7,0017.67,0014.02,0013.44
2021-09-03 19:54:00,,0829.1,5.01,0.00,30.6,28.1,00.0,39.5,31.5,33.4,0001.6,0017.36,0013.77,0013.23
2021-09-03 19:55:00,,0828.8,4.99,0.00,30.5,28.2,00.0,39.5,31.5,33.7,0001.7,0017.49,0013.54,0013.03
2021-09-03 19:56:00,,0829.0,5.01,0.00,30.5,28.3,00.0,39.5,31.5,33.5,0001.9,0017.48,0013.35,0012.86
2021-09-03 19:57:00,,0829.0,4.98,0.00,30.5,28.3,00.0,39.4,31.5,34.7,0002.0,0017.29,0013.24,0012.73
2021-09-03 19:58:00,,0829.1,5.00,0.00,30.4,28.4,00.0,39.4,31.5,34.0,0002.1,0016.26,0013.06,0012.58
2021-09-03 19:59:00,,0828.9,5.01,0.00,30.4,28.5,00.0,39.4,31.5,34.5,0001.9,0016.09,0012.92,0012.45
